User: anonymous   Login
Location: Unspecified
(0.0000°N, 0.0000°E)
Time: 21:40:20
(UTC+00:00)
Language:

DSAT - Orbit

View from above orbital plane
View from above orbital plane
View from above satellite
View from above satellite

Ground track
Ground track

The orbit data is extracted from the following two-line orbital elements,

1 42794U 17036AF  23083.48303842  .00008525  00000-0  68830-3 0  9999
2 42794  97.4643  79.5508 0116891 225.8262 133.3308 14.94801953313303
Epoch (UTC): 24 March 2023 11:35:34
Eccentricity: 0.0116891
inclination: 97.4643°
perigee height: 501 km
apogee height: 664 km
right ascension of ascending node: 79.5508°
argument of perigee: 225.8262°
revolutions per day: 14.94801953
mean anomaly at epoch: 133.3308°
orbit number at epoch: 31330

The dashed part of the orbit path shows where the satellite is in the earth's shadow,  

DLR